| time (UTC) | temp F | wind direction | speed MPH | gust MPH | rain 1hr in | rain 24hr in | rain mn in | humidity % | barometer mb |
| 20260507010339 | 55 | 345 | 0.0 | 0.0 | 0.00 | 0.39 | 0.39 | 79 | 3406.9 |
| 20260507005837 | 55 | 345 | 0.0 | 2.0 | 0.00 | 0.39 | 0.39 | 78 | 3406.8 |
| 20260507005333 | 56 | 9 | 0.0 | 0.0 | 0.00 | 0.39 | 0.39 | 78 | 3406.7 |
| 20260507004830 | 56 | 9 | 0.0 | 0.0 | 0.00 | 0.39 | 0.39 | 78 | 3406.5 |
| 20260507004327 | 56 | 8 | 0.0 | 0.0 | 0.00 | 0.39 | 0.39 | 77 | 3406.5 |
| 20260507003824 | 56 | 29 | 0.0 | 0.0 | 0.00 | 0.39 | 0.39 | 77 | 3406.7 |
| 20260507003320 | 56 | 29 | 0.0 | 0.0 | 0.00 | 0.39 | 0.39 | 76 | 3406.4 |
| 20260507002815 | 57 | 29 | 0.0 | 0.0 | 0.00 | 0.39 | 0.39 | 77 | 3406.6 |
| 20260507002311 | 57 | 29 | 0.0 | 0.0 | 0.00 | 0.39 | 0.39 | 76 | 3406.5 |
| 20260507001809 | 57 | 29 | 0.0 | 0.0 | 0.00 | 0.39 | 0.39 | 74 | 3406.7 |
| 20260507001306 | 57 | 30 | 0.0 | 0.0 | 0.00 | 0.39 | 0.39 | 74 | 3407.0 |
| 20260507000802 | 57 | 31 | 0.0 | 2.0 | 0.00 | 0.39 | 0.39 | 74 | 3406.5 |
| 20260507000259 | 57 | 40 | 0.0 | 2.0 | 0.00 | 0.39 | 0.39 | 75 | 3406.5 |
| 20260506235754 | 57 | 15 | 0.0 | 0.0 | 0.00 | 0.39 | 0.39 | 74 | 3406.9 |
| 20260506235250 | 57 | 17 | 1.0 | 2.0 | 0.00 | 0.39 | 0.39 | 75 | 3406.7 |
| 20260506234748 | 57 | 25 | 0.0 | 0.0 | 0.00 | 0.39 | 0.39 | 74 | 3406.6 |
| 20260506234245 | 58 | 21 | 0.0 | 0.0 | 0.00 | 0.39 | 0.39 | 74 | 3406.7 |
| 20260506233742 | 58 | 289 | 3.0 | 5.0 | 0.00 | 0.39 | 0.39 | 74 | 3407.0 |
| 20260506233238 | 58 | 17 | 0.0 | 2.0 | 0.00 | 0.39 | 0.39 | 73 | 3406.7 |
| 20260506232735 | 58 | 26 | 0.0 | 0.0 | 0.00 | 0.39 | 0.39 | 74 | 3406.7 |
| 20260506232230 | 58 | 26 | 0.0 | 0.0 | 0.00 | 0.39 | 0.39 | 74 | 3406.7 |
| 20260506231727 | 57 | 25 | 0.0 | 0.0 | 0.00 | 0.39 | 0.39 | 74 | 3406.8 |
| 20260506231225 | 57 | 26 | 0.0 | 0.0 | 0.00 | 0.39 | 0.39 | 74 | 3407.2 |
| 20260506230716 | 58 | 26 | 0.0 | 0.0 | 0.00 | 0.39 | 0.39 | 74 | 3407.1 |
| 20260506230213 | 58 | 26 | 0.0 | 0.0 | 0.00 | 0.39 | 0.39 | 73 | 3407.2 |
| 20260506225710 | 58 | 26 | 0.0 | 0.0 | 0.00 | 0.39 | 0.39 | 73 | 3407.2 |
| 20260506225207 | 58 | 25 | 0.0 | 0.0 | 0.00 | 0.39 | 0.39 | 72 | 3407.1 |
| 20260506224703 | 58 | 42 | 0.0 | 0.0 | 0.00 | 0.39 | 0.39 | 72 | 3406.6 |
| 20260506224201 | 58 | 252 | 2.0 | 3.0 | 0.00 | 0.39 | 0.39 | 72 | 3406.7 |
| 20260506223656 | 58 | 255 | 0.0 | 0.0 | 0.00 | 0.39 | 0.39 | 71 | 3406.6 |
| 20260506223152 | 58 | 32 | 1.0 | 2.0 | 0.00 | 0.39 | 0.39 | 71 | 3407.0 |
| 20260506222649 | 58 | 275 | 4.0 | 7.0 | 0.00 | 0.39 | 0.39 | 72 | 3407.2 |
| 20260506222145 | 58 | 344 | 0.0 | 0.0 | 0.00 | 0.39 | 0.39 | 72 | 3407.7 |
| 20260506221644 | 58 | 7 | 1.0 | 2.0 | 0.00 | 0.39 | 0.39 | 72 | 3406.8 |
| 20260506221141 | 58 | 344 | 1.0 | 2.0 | 0.00 | 0.39 | 0.39 | 73 | 3406.6 |
| 20260506220638 | 58 | 29 | 1.0 | 2.0 | 0.00 | 0.39 | 0.39 | 72 | 3406.9 |
| 20260506220133 | 58 | 58 | 1.0 | 2.0 | 0.00 | 0.39 | 0.39 | 72 | 3407.2 |
| 20260506215630 | 59 | 71 | 0.0 | 0.0 | 0.00 | 0.39 | 0.39 | 72 | 3407.1 |
| 20260506215125 | 58 | 90 | 0.0 | 0.0 | 0.00 | 0.39 | 0.39 | 71 | 3407.0 |
| 20260506214622 | 59 | 350 | 1.0 | 2.0 | 0.00 | 0.39 | 0.39 | 70 | 3407.0 |
| 20260506214119 | 59 | 42 | 1.0 | 2.0 | 0.00 | 0.39 | 0.39 | 70 | 3407.2 |
| 20260506213618 | 59 | 152 | 0.0 | 0.0 | 0.00 | 0.39 | 0.39 | 70 | 3406.4 |
| 20260506213114 | 58 | 35 | 0.0 | 0.0 | 0.00 | 0.39 | 0.39 | 71 | 3406.6 |
| 20260506212612 | 59 | 273 | 5.0 | 8.0 | 0.00 | 0.39 | 0.39 | 70 | 3406.6 |
| 20260506212107 | 59 | 132 | 1.0 | 2.0 | 0.00 | 0.39 | 0.39 | 72 | 3407.1 |
| 20260506211603 | 59 | 355 | 2.0 | 3.0 | 0.00 | 0.39 | 0.39 | 71 | 3406.6 |
| 20260506211100 | 59 | 68 | 1.0 | 2.0 | 0.00 | 0.39 | 0.39 | 71 | 3406.3 |
| 20260506210556 | 60 | 344 | 2.0 | 2.0 | 0.00 | 0.39 | 0.39 | 71 | 3406.0 |
| 20260506210053 | 60 | 268 | 5.0 | 7.0 | 0.00 | 0.39 | 0.39 | 71 | 3405.7 |
| 20260506205549 | 59 | 239 | 2.0 | 2.0 | 0.00 | 0.39 | 0.39 | 72 | 3406.1 |
| 20260506205044 | 59 | 334 | 3.0 | 5.0 | 0.00 | 0.39 | 0.39 | 72 | 3405.9 |
| 20260506204543 | 59 | 346 | 1.0 | 2.0 | 0.00 | 0.39 | 0.39 | 73 | 3406.0 |
| 20260506204039 | 59 | 17 | 1.0 | 2.0 | 0.00 | 0.39 | 0.39 | 73 | 3406.6 |
| 20260506203538 | 59 | 321 | 2.0 | 3.0 | 0.00 | 0.39 | 0.39 | 73 | 3406.7 |
| 20260506203034 | 59 | 350 | 0.0 | 0.0 | 0.00 | 0.39 | 0.39 | 72 | 3406.9 |
| 20260506202532 | 59 | 28 | 1.0 | 2.0 | 0.00 | 0.39 | 0.39 | 73 | 3407.1 |
| 20260506202028 | 60 | 254 | 2.0 | 2.0 | 0.00 | 0.39 | 0.39 | 73 | 3407.4 |
| 20260506201526 | 60 | 348 | 2.0 | 3.0 | 0.00 | 0.39 | 0.39 | 74 | 3407.3 |
| 20260506201022 | 60 | 57 | 0.0 | 0.0 | 0.00 | 0.39 | 0.39 | 76 | 3407.2 |
| 20260506200518 | 60 | 13 | 2.0 | 3.0 | 0.00 | 0.39 | 0.39 | 74 | 3407.3 |
| 20260506200015 | 60 | 293 | 0.0 | 0.0 | 0.00 | 0.39 | 0.39 | 73 | 3407.1 |
| 20260506195513 | 60 | 351 | 0.0 | 2.0 | 0.00 | 0.39 | 0.39 | 73 | 3406.8 |
| 20260506195008 | 60 | 327 | 4.0 | 5.0 | 0.00 | 0.39 | 0.39 | 71 | 3406.8 |
| 20260506194505 | 60 | 314 | 5.0 | 7.0 | 0.00 | 0.39 | 0.39 | 72 | 3406.9 |
| 20260506193956 | 60 | 94 | 0.0 | 0.0 | 0.00 | 0.39 | 0.39 | 73 | 3407.1 |
| 20260506193454 | 59 | 310 | 2.0 | 3.0 | 0.00 | 0.39 | 0.39 | 72 | 3406.9 |
| 20260506192950 | 60 | 335 | 3.0 | 3.0 | 0.00 | 0.39 | 0.39 | 72 | 3407.4 |
| 20260506192447 | 60 | 23 | 0.0 | 0.0 | 0.00 | 0.39 | 0.39 | 72 | 3407.3 |
| 20260506191944 | 60 | 279 | 3.0 | 3.0 | 0.00 | 0.39 | 0.39 | 72 | 3407.0 |
| 20260506191440 | 60 | 70 | 0.0 | 0.0 | 0.00 | 0.39 | 0.39 | 73 | 3407.0 |
| 20260506190931 | 60 | 309 | 1.0 | 2.0 | 0.00 | 0.39 | 0.39 | 71 | 3406.8 |
| 20260506190428 | 60 | 25 | 0.0 | 0.0 | 0.00 | 0.39 | 0.39 | 72 | 3406.7 |
| 20260506185925 | 60 | 166 | 1.0 | 2.0 | 0.00 | 0.39 | 0.39 | 71 | 3406.9 |
| 20260506185422 | 60 | 143 | 1.0 | 2.0 | 0.00 | 0.39 | 0.39 | 71 | 3407.1 |
| 20260506184919 | 60 | 144 | 0.0 | 0.0 | 0.00 | 0.39 | 0.39 | 70 | 3406.8 |
| 20260506184416 | 60 | 182 | 0.0 | 2.0 | 0.00 | 0.39 | 0.39 | 69 | 3407.1 |
| 20260506183914 | 60 | 5 | 3.0 | 3.0 | 0.00 | 0.39 | 0.39 | 69 | 3407.1 |
| 20260506183408 | 61 | 308 | 3.0 | 3.0 | 0.00 | 0.39 | 0.39 | 67 | 3407.1 |
| 20260506182905 | 61 | 25 | 1.0 | 2.0 | 0.00 | 0.39 | 0.39 | 67 | 3406.9 |
| 20260506182403 | 61 | 67 | 0.0 | 0.0 | 0.00 | 0.39 | 0.39 | 68 | 3406.8 |
| 20260506181859 | 62 | 320 | 4.0 | 5.0 | 0.00 | 0.39 | 0.39 | 68 | 3407.0 |
| 20260506181358 | 62 | 307 | 2.0 | 3.0 | 0.00 | 0.39 | 0.39 | 68 | 3406.7 |
| 20260506180855 | 61 | 11 | 2.0 | 3.0 | 0.00 | 0.39 | 0.39 | 67 | 3406.6 |
| 20260506180351 | 62 | 295 | 7.0 | 10.0 | 0.00 | 0.39 | 0.39 | 66 | 3406.7 |
| 20260506175848 | 62 | 158 | 3.0 | 3.0 | 0.00 | 0.39 | 0.39 | 68 | 3406.6 |
| 20260506175345 | 62 | 103 | 2.0 | 2.0 | 0.00 | 0.39 | 0.39 | 66 | 3406.4 |
| 20260506174841 | 61 | 304 | 2.0 | 3.0 | 0.00 | 0.39 | 0.39 | 67 | 3406.2 |
| 20260506174339 | 61 | 129 | 2.0 | 3.0 | 0.00 | 0.39 | 0.39 | 68 | 3406.5 |
| 20260506173837 | 62 | 77 | 2.0 | 3.0 | 0.00 | 0.39 | 0.39 | 67 | 3406.3 |
| 20260506173333 | 62 | 79 | 0.0 | 0.0 | 0.00 | 0.39 | 0.39 | 70 | 3406.1 |
| 20260506172830 | 61 | 100 | 0.0 | 2.0 | 0.00 | 0.39 | 0.39 | 70 | 3406.4 |
| 20260506172327 | 61 | 78 | 1.0 | 2.0 | 0.00 | 0.39 | 0.39 | 68 | 3406.4 |
| 20260506171824 | 61 | 6 | 3.0 | 3.0 | 0.00 | 0.39 | 0.39 | 70 | 3406.5 |
| 20260506171321 | 60 | 76 | 0.0 | 0.0 | 0.00 | 0.39 | 0.39 | 73 | 3406.5 |
| 20260506170819 | 61 | 149 | 1.0 | 2.0 | 0.00 | 0.39 | 0.39 | 68 | 3406.6 |
| 20260506170314 | 61 | 151 | 3.0 | 3.0 | 0.00 | 0.39 | 0.39 | 70 | 3406.8 |
| 20260506165814 | 60 | 39 | 0.0 | 0.0 | 0.00 | 0.39 | 0.39 | 70 | 3407.0 |
| 20260506165311 | 60 | 167 | 1.0 | 3.0 | 0.00 | 0.39 | 0.39 | 72 | 3406.6 |
| 20260506164807 | 59 | 37 | 0.0 | 2.0 | 0.00 | 0.39 | 0.39 | 71 | 3407.1 |
| 20260506164304 | 59 | 316 | 0.0 | 2.0 | 0.00 | 0.39 | 0.39 | 70 | 3407.1 |
| 20260506163801 | 59 | 217 | 1.0 | 2.0 | 0.00 | 0.39 | 0.39 | 71 | 3407.0 |
| 20260506163256 | 58 | 293 | 1.0 | 3.0 | 0.00 | 0.39 | 0.39 | 72 | 3407.2 |
| 20260506162752 | 58 | 257 | 6.0 | 8.0 | 0.00 | 0.39 | 0.39 | 73 | 3407.1 |
| 20260506162250 | 58 | 348 | 5.0 | 7.0 | 0.00 | 0.39 | 0.39 | 74 | 3407.1 |
| 20260506161747 | 59 | 263 | 4.0 | 5.0 | 0.00 | 0.39 | 0.39 | 75 | 3406.9 |
| 20260506161244 | 59 | 112 | 0.0 | 0.0 | 0.00 | 0.39 | 0.39 | 75 | 3407.2 |
| 20260506160742 | 58 | 46 | 1.0 | 2.0 | 0.00 | 0.39 | 0.39 | 75 | 3406.9 |
| 20260506160238 | 58 | 135 | 1.0 | 2.0 | 0.00 | 0.39 | 0.39 | 76 | 3407.2 |
| 20260506155737 | 58 | 116 | 0.0 | 2.0 | 0.00 | 0.39 | 0.39 | 76 | 3407.0 |
| 20260506155233 | 58 | 114 | 0.0 | 2.0 | 0.00 | 0.39 | 0.39 | 77 | 3406.9 |
| 20260506153341 | 56 | 72 | 0.0 | 2.0 | 0.00 | 0.39 | 0.39 | 77 | 3407.0 |
| 20260506152837 | 56 | 20 | 0.0 | 0.0 | 0.00 | 0.39 | 0.39 | 77 | 3406.8 |
| 20260506152335 | 55 | 34 | 1.0 | 2.0 | 0.00 | 0.39 | 0.39 | 78 | 3406.7 |
| 20260506151833 | 55 | 335 | 4.0 | 5.0 | 0.00 | 0.39 | 0.39 | 78 | 3407.0 |
| 20260506151329 | 55 | 295 | 1.0 | 3.0 | 0.00 | 0.39 | 0.39 | 80 | 3407.0 |
| 20260506150827 | 55 | 116 | 0.0 | 2.0 | 0.00 | 0.39 | 0.39 | 81 | 3406.8 |
| 20260506150324 | 56 | 124 | 0.0 | 0.0 | 0.00 | 0.39 | 0.39 | 83 | 3406.8 |
| 20260506145820 | 55 | 84 | 0.0 | 0.0 | 0.00 | 0.39 | 0.39 | 83 | 3406.7 |
| 20260506145316 | 55 | 89 | 0.0 | 0.0 | 0.00 | 0.39 | 0.39 | 84 | 3406.6 |
| 20260506144814 | 54 | 89 | 0.0 | 0.0 | 0.00 | 0.39 | 0.39 | 83 | 3406.5 |
| 20260506144311 | 54 | 76 | 0.0 | 0.0 | 0.00 | 0.39 | 0.39 | 84 | 3406.4 |
| 20260506143809 | 52 | 94 | 0.0 | 2.0 | 0.00 | 0.39 | 0.39 | 87 | 3406.1 |
| 20260506143306 | 52 | 83 | 0.0 | 2.0 | 0.00 | 0.39 | 0.39 | 89 | 3405.8 |
| 20260506142804 | 51 | 139 | 3.0 | 3.0 | 0.00 | 0.39 | 0.39 | 94 | 3406.1 |
| 20260506142302 | 50 | 168 | 5.0 | 7.0 | 0.00 | 0.39 | 0.39 | 98 | 3406.1 |
| 20260506141800 | 49 | 141 | 2.0 | 3.0 | 0.00 | 0.39 | 0.39 | 99 | 3406.0 |
| 20260506141258 | 49 | 83 | 0.0 | 0.0 | 0.00 | 0.39 | 0.39 | 99 | 3405.8 |
| 20260506140755 | 50 | 179 | 3.0 | 5.0 | 0.00 | 0.39 | 0.39 | 99 | 3405.5 |
| 20260506140252 | 50 | 76 | 0.0 | 0.0 | 0.00 | 0.39 | 0.39 | 99 | 3405.5 |
| 20260506135749 | 50 | 142 | 1.0 | 2.0 | 0.00 | 0.39 | 0.39 | 99 | 3405.4 |
| 20260506135245 | 50 | 86 | 0.0 | 0.0 | 0.00 | 0.39 | 0.39 | 99 | 3405.6 |
| 20260506134742 | 50 | 69 | 0.0 | 2.0 | 0.00 | 0.39 | 0.39 | 99 | 3405.5 |
| 20260506134238 | 50 | 280 | 2.0 | 3.0 | 0.00 | 0.39 | 0.39 | 99 | 3405.5 |
| 20260506133736 | 50 | 275 | 3.0 | 3.0 | 0.00 | 0.39 | 0.39 | 99 | 3405.6 |
| 20260506133232 | 50 | 20 | 1.0 | 2.0 | 0.00 | 0.39 | 0.39 | 99 | 3405.6 |
| 20260506132729 | 50 | 102 | 0.0 | 0.0 | 0.00 | 0.39 | 0.39 | 99 | 3405.6 |
| 20260506132226 | 49 | 82 | 0.0 | 0.0 | 0.00 | 0.39 | 0.39 | 99 | 3405.6 |
| 20260506131724 | 49 | 111 | 0.0 | 0.0 | 0.00 | 0.39 | 0.39 | 99 | 3405.5 |
| 20260506131220 | 49 | 327 | 1.0 | 2.0 | 0.00 | 0.39 | 0.39 | 99 | 3405.6 |
| 20260506130717 | 49 | 338 | 2.0 | 5.0 | 0.00 | 0.39 | 0.39 | 99 | 3405.7 |
| 20260506130214 | 49 | 41 | 1.0 | 2.0 | 0.00 | 0.39 | 0.39 | 99 | 3405.7 |
| 20260506125712 | 49 | 22 | 1.0 | 2.0 | 0.00 | 0.39 | 0.39 | 99 | 3405.6 |
| 20260506125209 | 49 | 64 | 0.0 | 0.0 | 0.00 | 0.39 | 0.39 | 99 | 3405.3 |
| 20260506124707 | 49 | 54 | 0.0 | 0.0 | 0.00 | 0.39 | 0.39 | 99 | 3405.6 |
| 20260506124205 | 49 | 74 | 0.0 | 0.0 | 0.00 | 0.39 | 0.39 | 99 | 3405.3 |
| 20260506123702 | 49 | 79 | 0.0 | 0.0 | 0.00 | 0.39 | 0.39 | 99 | 3405.5 |
| 20260506123201 | 49 | 83 | 0.0 | 0.0 | 0.00 | 0.39 | 0.39 | 99 | 3405.2 |
| 20260506122657 | 49 | 30 | 1.0 | 2.0 | 0.00 | 0.39 | 0.39 | 99 | 3405.2 |
| 20260506122155 | 49 | 65 | 0.0 | 2.0 | 0.00 | 0.39 | 0.39 | 99 | 3405.2 |
| 20260506121652 | 49 | 350 | 2.0 | 3.0 | 0.00 | 0.39 | 0.39 | 99 | 3405.1 |
| 20260506121148 | 49 | 39 | 1.0 | 2.0 | 0.00 | 0.39 | 0.39 | 99 | 3405.0 |
| 20260506120647 | 49 | 289 | 2.0 | 3.0 | 0.00 | 0.39 | 0.39 | 99 | 3404.9 |
| 20260506120144 | 49 | 37 | 2.0 | 3.0 | 0.00 | 0.39 | 0.39 | 99 | 3404.9 |
| 20260506115642 | 49 | 62 | 1.0 | 2.0 | 0.00 | 0.39 | 0.39 | 99 | 3404.9 |
| 20260506115140 | 49 | 8 | 2.0 | 3.0 | 0.00 | 0.39 | 0.39 | 99 | 3404.8 |
| 20260506114637 | 49 | 72 | 0.0 | 0.0 | 0.00 | 0.39 | 0.39 | 99 | 3404.4 |
| 20260506114135 | 49 | 81 | 0.0 | 0.0 | 0.00 | 0.39 | 0.39 | 99 | 3404.3 |
| 20260506113633 | 49 | 268 | 0.0 | 0.0 | 0.00 | 0.39 | 0.39 | 99 | 3404.2 |
| 20260506113130 | 49 | 105 | 0.0 | 0.0 | 0.00 | 0.39 | 0.39 | 99 | 3404.2 |
| 20260506112626 | 49 | 53 | 0.0 | 0.0 | 0.00 | 0.39 | 0.39 | 99 | 3404.4 |
| 20260506112124 | 49 | 66 | 0.0 | 0.0 | 0.00 | 0.39 | 0.39 | 99 | 3404.1 |
| 20260506111621 | 49 | 11 | 2.0 | 3.0 | 0.00 | 0.39 | 0.39 | 99 | 3404.3 |
| 20260506111119 | 49 | 345 | 2.0 | 3.0 | 0.00 | 0.39 | 0.39 | 99 | 3404.4 |
| 20260506110616 | 50 | 67 | 0.0 | 0.0 | 0.00 | 0.39 | 0.39 | 99 | 3404.4 |
| 20260506110114 | 50 | 41 | 1.0 | 2.0 | 0.00 | 0.39 | 0.39 | 99 | 3404.3 |
| 20260506105610 | 50 | 16 | 1.0 | 2.0 | 0.00 | 0.39 | 0.39 | 99 | 3404.4 |
| 20260506105107 | 49 | 48 | 0.0 | 0.0 | 0.00 | 0.39 | 0.39 | 99 | 3404.1 |
| 20260506104605 | 49 | 271 | 1.0 | 2.0 | 0.00 | 0.39 | 0.39 | 99 | 3403.9 |
| 20260506104102 | 49 | 68 | 0.0 | 0.0 | 0.00 | 0.39 | 0.39 | 99 | 3403.7 |
| 20260506103559 | 49 | 10 | 1.0 | 2.0 | 0.00 | 0.39 | 0.39 | 99 | 3403.6 |
| 20260506103056 | 49 | 260 | 2.0 | 3.0 | 0.00 | 0.39 | 0.39 | 99 | 3403.6 |
| 20260506102554 | 49 | 11 | 1.0 | 2.0 | 0.00 | 0.39 | 0.39 | 99 | 3403.3 |
| 20260506102052 | 49 | 32 | 1.0 | 2.0 | 0.00 | 0.39 | 0.39 | 99 | 3403.7 |
| 20260506101548 | 50 | 328 | 1.0 | 2.0 | 0.00 | 0.39 | 0.39 | 99 | 3403.2 |
| 20260506101045 | 50 | 48 | 0.0 | 2.0 | 0.00 | 0.39 | 0.39 | 99 | 3402.8 |
| 20260506100544 | 50 | 105 | 0.0 | 0.0 | 0.00 | 0.39 | 0.39 | 99 | 3403.1 |
| 20260506100041 | 49 | 42 | 1.0 | 2.0 | 0.00 | 0.39 | 0.39 | 99 | 3402.8 |
| 20260506095540 | 49 | 59 | 1.0 | 2.0 | 0.00 | 0.39 | 0.39 | 99 | 3402.9 |
| 20260506095036 | 49 | 346 | 1.0 | 3.0 | 0.00 | 0.39 | 0.39 | 99 | 3403.1 |
| 20260506094534 | 49 | 96 | 1.0 | 2.0 | 0.00 | 0.39 | 0.39 | 99 | 3402.9 |
| 20260506094031 | 49 | 32 | 0.0 | 2.0 | 0.00 | 0.39 | 0.39 | 99 | 3402.9 |
| 20260506093530 | 50 | 94 | 0.0 | 0.0 | 0.00 | 0.39 | 0.39 | 99 | 3402.8 |
| 20260506093027 | 49 | 88 | 0.0 | 0.0 | 0.00 | 0.39 | 0.39 | 99 | 3402.7 |
| 20260506092525 | 49 | 31 | 2.0 | 3.0 | 0.00 | 0.39 | 0.39 | 99 | 3403.0 |
| 20260506092021 | 49 | 78 | 0.0 | 0.0 | 0.00 | 0.39 | 0.39 | 99 | 3402.7 |
| 20260506091520 | 49 | 58 | 1.0 | 2.0 | 0.00 | 0.39 | 0.39 | 99 | 3402.9 |
| 20260506091016 | 49 | 45 | 1.0 | 2.0 | 0.00 | 0.39 | 0.39 | 99 | 3402.8 |
| 20260506090514 | 49 | 288 | 1.0 | 2.0 | 0.00 | 0.39 | 0.39 | 99 | 3402.6 |
| 20260506090010 | 49 | 76 | 0.0 | 0.0 | 0.00 | 0.39 | 0.39 | 99 | 3402.8 |
| 20260506085507 | 49 | 312 | 2.0 | 3.0 | 0.00 | 0.39 | 0.39 | 99 | 3402.6 |
| 20260506085003 | 49 | 51 | 0.0 | 0.0 | 0.00 | 0.39 | 0.39 | 99 | 3402.3 |
| 20260506084500 | 49 | 352 | 1.0 | 2.0 | 0.00 | 0.39 | 0.39 | 99 | 3402.4 |
| 20260506083956 | 49 | 259 | 3.0 | 3.0 | 0.00 | 0.39 | 0.39 | 99 | 3402.7 |
| 20260506083454 | 49 | 72 | 0.0 | 0.0 | 0.00 | 0.39 | 0.39 | 99 | 3402.3 |
| 20260506082951 | 49 | 297 | 2.0 | 3.0 | 0.00 | 0.39 | 0.39 | 99 | 3402.6 |
| 20260506082448 | 50 | 327 | 3.0 | 3.0 | 0.00 | 0.39 | 0.39 | 99 | 3402.6 |
| 20260506081943 | 50 | 29 | 1.0 | 2.0 | 0.00 | 0.39 | 0.39 | 99 | 3402.7 |
| 20260506081442 | 50 | 135 | 0.0 | 0.0 | 0.00 | 0.39 | 0.39 | 99 | 3402.3 |
| 20260506080939 | 50 | 2 | 2.0 | 2.0 | 0.00 | 0.39 | 0.39 | 99 | 3402.3 |
| 20260506080436 | 50 | 325 | 3.0 | 5.0 | 0.00 | 0.39 | 0.39 | 99 | 3402.6 |
| 20260506073420 | 45 | 111 | 1.0 | 2.0 | 0.31 | 0.38 | 0.38 | 99 | 3401.2 |
| 20260506072917 | 50 | 208 | 3.0 | 5.0 | 0.35 | 0.36 | 0.36 | 99 | 3401.9 |
| 20260506072414 | 50 | 268 | 2.0 | 3.0 | 0.31 | 0.33 | 0.33 | 99 | 3401.9 |
| 20260506071912 | 50 | 20 | 1.0 | 2.0 | 0.17 | 0.30 | 0.30 | 99 | 3401.6 |
| 20260506071410 | 50 | 342 | 5.0 | 7.0 | 0.35 | 0.28 | 0.28 | 99 | 3401.5 |
| 20260506070906 | 50 | 107 | 0.0 | 0.0 | 0.42 | 0.27 | 0.27 | 99 | 3401.2 |
| 20260506070403 | 50 | 93 | 2.0 | 3.0 | 0.17 | 0.23 | 0.23 | 99 | 3401.1 |
| 20260506062340 | 51 | 42 | 0.0 | 0.0 | 0.38 | 0.16 | 0.16 | 99 | 3401.3 |
| 20260506061836 | 51 | 104 | 0.0 | 0.0 | 0.42 | 0.15 | 0.15 | 99 | 3401.1 |
| 20260506061333 | 51 | 24 | 4.0 | 5.0 | 0.24 | 0.11 | 0.11 | 99 | 3401.2 |
| 20260506060831 | 51 | 301 | 3.0 | 10.0 | 0.05 | 0.08 | 0.08 | 99 | 3401.0 |
| 20260506060329 | 51 | 162 | 0.0 | 0.0 | 0.00 | 0.07 | 0.07 | 99 | 3401.4 |
| 20260506051301 | 52 | 28 | 1.0 | 2.0 | 0.19 | 0.05 | 0.05 | 99 | 3401.0 |
| 20260506050759 | 52 | 29 | 1.0 | 2.0 | 0.24 | 0.03 | 0.03 | 99 | 3400.8 |
| 20260506050256 | 52 | 333 | 7.0 | 10.0 | 0.17 | 0.02 | 0.02 | 99 | 3400.6 |
| 20260506044747 | 53 | 59 | 0.0 | 2.0 | 0.00 | 0.51 | 0.51 | 99 | 3400.0 |
| 20260506044244 | 53 | 57 | 1.0 | 2.0 | 0.07 | 0.51 | 0.51 | 99 | 3400.1 |
| 20260506043741 | 54 | 290 | 4.0 | 5.0 | 0.26 | 0.51 | 0.51 | 99 | 3400.1 |
| 20260506043238 | 54 | 332 | 2.0 | 5.0 | 0.24 | 0.49 | 0.49 | 99 | 3400.2 |
| 20260506042737 | 55 | 25 | 2.0 | 2.0 | 0.24 | 0.47 | 0.47 | 99 | 3400.0 |
| 20260506042235 | 55 | 357 | 1.0 | 2.0 | 0.17 | 0.45 | 0.45 | 99 | 3399.9 |
| 20260506041733 | 55 | 40 | 3.0 | 3.0 | 0.19 | 0.44 | 0.44 | 99 | 3399.7 |
| 20260506041230 | 56 | 86 | 0.0 | 0.0 | 0.31 | 0.42 | 0.42 | 99 | 3399.7 |
| 20260506040728 | 57 | 311 | 5.0 | 8.0 | 0.61 | 0.40 | 0.40 | 99 | 3399.4 |
| 20260506040224 | 60 | 285 | 11.0 | 13.0 | 0.59 | 0.37 | 0.37 | 99 | 3399.5 |
| 20260506035721 | 61 | 300 | 4.0 | 5.0 | 0.71 | 0.34 | 0.34 | 99 | 3399.2 |
| 20260506035218 | 61 | 76 | 0.0 | 0.0 | 0.66 | 0.28 | 0.28 | 99 | 3399.3 |
| 20260506034715 | 61 | 71 | 0.0 | 0.0 | 0.47 | 0.22 | 0.22 | 99 | 3399.5 |
| 20260506034212 | 61 | 59 | 1.0 | 2.0 | 0.31 | 0.16 | 0.16 | 99 | 3399.1 |
| 20260506033710 | 61 | 2 | 2.0 | 3.0 | 0.19 | 0.14 | 0.14 | 99 | 3399.2 |
| 20260506033206 | 61 | 43 | 1.0 | 2.0 | 0.00 | 0.11 | 0.11 | 99 | 3398.9 |
| 20260506032703 | 61 | 56 | 1.0 | 2.0 | 0.00 | 0.11 | 0.11 | 99 | 3398.9 |
| 20260506032200 | 61 | 58 | 0.0 | 0.0 | 0.00 | 0.11 | 0.11 | 99 | 3398.7 |
| 20260506031651 | 61 | 58 | 0.0 | 0.0 | 0.24 | 0.11 | 0.11 | 99 | 3398.8 |
| 20260506031148 | 61 | 58 | 0.0 | 0.0 | 0.24 | 0.11 | 0.11 | 99 | 3398.9 |
| 20260506030647 | 61 | 57 | 0.0 | 0.0 | 0.00 | 0.07 | 0.07 | 99 | 3399.0 |
| 20260506030144 | 61 | 57 | 0.0 | 0.0 | 0.24 | 0.07 | 0.07 | 99 | 3398.9 |
| 20260506025640 | 61 | 57 | 0.0 | 0.0 | 0.24 | 0.07 | 0.07 | 99 | 3399.0 |
| 20260506025136 | 61 | 55 | 0.0 | 0.0 | 0.00 | 0.03 | 0.03 | 99 | 3399.2 |
| 20260506024634 | 61 | 55 | 0.0 | 0.0 | 0.00 | 0.03 | 0.03 | 99 | 3399.1 |
| 20260506024130 | 61 | 55 | 0.0 | 0.0 | 0.00 | 0.03 | 0.03 | 99 | 3399.2 |
| 20260506023626 | 61 | 55 | 0.0 | 0.0 | 0.00 | 0.03 | 0.03 | 99 | 3399.1 |
| 20260506023124 | 61 | 55 | 0.0 | 0.0 | 0.00 | 0.03 | 0.03 | 99 | 3399.1 |
| 20260506022621 | 61 | 55 | 0.0 | 0.0 | 0.00 | 0.03 | 0.03 | 99 | 3399.1 |
| 20260506022119 | 61 | 53 | 0.0 | 0.0 | 0.00 | 0.03 | 0.03 | 98 | 3399.1 |
| 20260506021616 | 61 | 22 | 1.0 | 2.0 | 0.00 | 0.03 | 0.03 | 99 | 3399.3 |
| 20260506021113 | 61 | 25 | 2.0 | 2.0 | 0.00 | 0.03 | 0.03 | 99 | 3399.2 |
| 20260506020610 | 61 | 79 | 0.0 | 0.0 | 0.00 | 0.03 | 0.03 | 99 | 3399.1 |
| 20260506020108 | 61 | 97 | 0.0 | 0.0 | 0.00 | 0.03 | 0.03 | 98 | 3398.8 |
| 20260506015605 | 61 | 73 | 0.0 | 0.0 | 0.00 | 0.03 | 0.03 | 98 | 3398.8 |
| 20260506015102 | 61 | 87 | 0.0 | 0.0 | 0.00 | 0.03 | 0.03 | 99 | 3399.0 |
| 20260506014600 | 61 | 87 | 0.0 | 0.0 | 0.00 | 0.03 | 0.03 | 99 | 3398.9 |
| 20260506014055 | 61 | 85 | 0.0 | 0.0 | 0.00 | 0.03 | 0.03 | 99 | 3399.1 |
| 20260506013553 | 61 | 124 | 0.0 | 2.0 | 0.00 | 0.03 | 0.03 | 99 | 3399.3 |
| 20260506013050 | 61 | 125 | 0.0 | 0.0 | 0.00 | 0.03 | 0.03 | 99 | 3399.3 |
| 20260506012546 | 61 | 108 | 0.0 | 2.0 | 0.00 | 0.03 | 0.03 | 99 | 3399.3 |
| 20260506012043 | 61 | 129 | 0.0 | 0.0 | 0.00 | 0.03 | 0.03 | 99 | 3399.5 |
| 20260506011541 | 61 | 113 | 0.0 | 0.0 | 0.00 | 0.03 | 0.03 | 99 | 3399.3 |
| 20260506011037 | 61 | 113 | 0.0 | 0.0 | 0.00 | 0.03 | 0.03 | 99 | 3399.5 |
| 20260506010536 | 61 | 107 | 0.0 | 0.0 | 0.00 | 0.03 | 0.03 | 99 | 3399.2 |